Theta_e
291 287 285 285 289 290 290 289 290 291 288 285 285 284 284 284 285 285 288 288 286 286 287 289 289 289 290 290 291 293 294 292 292 293 294 296 296 296 296 297 297 297 298 301 301 300 299 299 297 297 296 296 296 297 298 298 299 300 299 299 298 299 299 299 298 298 298 297 296 296 294 295 295 295 296 295 296 296 296 296 296 297 296 296 295 294
290 286 285 289 291 291 291 288 288 287 285 285 284 282 285 284 285 289 288 290 285 286 283 284 288 289 290 291 292 293 293 292 293 294 294 295 296 296 296 297 298 298 300 300 298 298 296 296 296 295 295 295 295 295 296 297 298 299 299 298 299 298 298 298 298 298 298 298 297 296 295 296 296 295 294 294 295 295 295 296 296 296 296 296 295 294
285 284 288 290 291 285 281 286 284 286 286 285 285 285 282 284 286 288 289 289 286 284 286 284 285 288 289 291 292 293 293 295 295 294 295 295 295 296 297 297 297 297 297 297 296 297 295 295 294 293 294 294 295 296 296 297 298 298 298 299 299 298 298 298 298 299 298 298 298 297 297 296 296 296 296 296 296 296 295 295 295 295 296 295 295 294
284 284 288 290 288 288 285 281 283 284 284 283 284 282 283 285 283 284 285 282 284 285 286 287 285 287 290 292 292 294 293 294 294 294 295 296 295 295 296 296 296 296 296 297 296 295 294 294 293 292 293 294 294 294 294 295 296 297 298 298 298 298 298 298 298 298 299 299 299 298 297 297 296 295 295 295 295 295 294 293 294 295 295 295 294 294
288 286 287 289 286 287 287 284 285 284 286 284 284 284 284 285 286 285 284 283 284 285 282 283 286 289 290 288 288 290 291 291 293 293 293 294 296 296 297 296 297 296 295 295 295 295 295 294 294 294 294 293 293 294 294 295 296 296 297 298 298 298 297 298 298 298 299 298 297 295 294 295 293 293 294 293 292 293 293 293 292 293 294 294 294 293
286 287 285 284 285 284 285 283 283 286 284 285 283 285 287 287 286 285 285 284 281 283 281 282 283 286 284 286 286 288 285 288 289 291 292 294 295 295 294 295 294 294 293 294 294 295 295 294 294 294 293 292 293 293 295 295 296 296 297 298 298 298 297 297 297 298 298 297 296 294 293 292 292 292 291 291 291 291 291 292 293 293 293 293 294 293
285 286 288 288 284 283 284 284 284 285 285 283 283 285 287 286 285 284 283 283 278 277 283 281 280 281 283 286 288 287 287 290 290 289 293 295 294 293 294 294 293 293 293 293 292 293 293 294 293 294 294 294 293 294 294 294 294 295 296 297 297 297 297 297 297 297 297 296 296 295 295 295 294 293 293 295 295 294 293 294 293 292 293 293 293 293
285 285 285 285 284 283 283 282 285 286 284 282 282 283 284 284 283 284 283 283 282 281 283 284 283 279 282 285 288 288 289 290 290 292 293 293 292 293 293 293 292 293 293 293 293 293 292 292 292 293 293 293 294 293 292 293 293 294 295 295 296 296 296 296 296 296 297 296 296 295 295 295 295 295 295 294 294 295 294 293 293 292 292 292 293 292
285 284 284 284 284 281 283 287 284 287 285 282 283 283 283 283 283 282 283 281 279 279 279 280 284 280 279 285 283 286 287 288 289 291 292 292 292 293 294 293 292 292 292 292 295 294 293 293 292 291 293 293 292 291 292 292 293 294 294 295 295 295 295 295 295 295 296 296 296 295 295 295 295 296 296 294 294 293 293 292 293 292 291 291 292 292
284 286 284 286 284 283 284 282 284 287 285 284 282 282 281 281 281 282 280 282 277 277 278 279 283 279 283 288 284 282 286 286 289 290 290 292 293 294 294 292 292 291 292 291 291 292 293 292 291 291 290 292 292 289 290 291 292 292 293 293 293 294 294 294 294 295 295 295 295 294 294 294 295 295 293 293 292 292 292 292 292 291 291 290 290 291
286 288 286 285 285 286 284 283 282 287 285 283 284 285 282 280 278 277 277 277 275 275 280 281 283 283 280 286 284 285 286 286 288 287 288 291 290 290 291 291 291 292 292 292 291 292 292 292 291 291 293 292 292 289 290 291 291 291 292 292 292 293 293 293 294 294 294 295 295 294 294 294 294 294 292 291 291 291 290 291 291 290 290 290 290 290
286 284 287 285 287 284 284 284 283 282 282 286 284 280 281 283 277 275 269 275 275 275 280 282 283 283 280 283 284 282 282 282 287 289 290 290 291 292 290 290 290 290 291 290 291 292 292 294 294 293 293 292 292 292 290 290 290 291 291 291 291 291 292 292 293 293 294 294 294 294 294 294 294 294 292 291 291 290 290 291 290 290 290 289 290 290
282 284 285 287 288 289 287 287 283 285 286 285 283 285 279 274 272 270 273 271 271 278 278 280 281 279 281 286 284 286 287 287 285 287 289 291 292 292 291 290 290 289 288 289 290 290 291 292 292 292 292 292 292 291 290 289 289 289 290 290 290 291 291 291 292 293 293 293 294 294 294 294 294 294 293 292 292 291 291 291 291 290 289 289 289 289
284 281 283 286 288 288 288 285 283 284 284 284 284 281 279 274 272 272 270 267 270 275 277 278 281 280 284 284 289 292 295 294 291 289 290 291 291 290 290 289 289 289 288 288 289 289 290 290 291 291 291 291 290 290 290 289 289 289 289 289 289 290 290 291 291 292 292 293 293 294 294 294 293 293 293 292 292 292 291 291 291 290 290 289 289 289
280 284 284 284 285 287 289 290 289 287 284 285 286 286 283 281 276 275 275 279 279 278 276 276 277 276 275 283 285 291 290 285 284 285 286 286 287 289 287 288 288 289 289 287 289 289 289 289 289 289 290 290 290 290 289 289 289 288 289 289 288 289 289 289 290 291 291 292 293 293 293 293 293 293 293 293 293 292 291 291 291 291 291 290 290 290
284 285 286 288 286 288 288 290 287 285 285 285 285 284 281 282 284 281 284 280 282 277 275 274 278 278 284 286 288 284 285 288 288 289 287 288 286 285 288 289 289 289 288 287 288 288 288 288 288 288 288 289 289 289 289 289 289 289 289 288 288 288 289 289 289 289 290 291 291 292 292 292 292 292 293 293 292 292 291 291 291 291 291 291 291 291
285 282 286 287 284 286 286 286 288 289 284 285 285 282 286 287 286 283 283 284 280 278 280 282 279 285 288 291 291 290 288 288 285 285 284 286 285 286 287 287 287 287 287 287 287 287 286 286 286 286 286 287 287 288 288 289 289 288 288 288 288 288 288 288 288 289 289 290 290 290 291 291 291 291 291 292 291 291 291 290 290 290 290 291 291 290
286 288 290 286 287 286 284 285 285 284 287 283 281 285 286 287 287 284 279 278 279 277 280 284 282 284 284 282 286 287 287 288 287 286 285 285 285 286 286 286 286 286 286 286 286 286 285 285 285 285 286 286 286 287 288 288 289 289 288 287 287 287 286 287 288 288 288 289 289 289 290 290 290 291 291 291 291 290 290 289 290 290 289 289 290 289
291 283 289 288 288 287 284 286 286 285 287 286 284 288 285 281 280 281 277 275 276 276 278 281 284 284 286 286 289 290 288 287 287 286 287 287 286 285 285 286 285 284 284 284 284 285 285 285 285 285 285 286 286 287 287 288 288 288 288 288 288 287 286 286 287 287 288 288 289 289 289 289 290 290 290 290 290 290 289 289 289 289 289 289 289 289
287 285 286 285 287 288 286 284 278 282 286 286 287 285 287 285 283 280 281 279 281 276 279 279 284 282 287 288 288 286 285 286 286 286 286 285 284 284 283 284 284 283 283 283 284 284 284 284 284 285 285 285 285 286 287 287 288 287 288 288 288 289 289 288 287 286 286 287 287 288 288 288 289 289 289 289 289 289 288 289 288 288 288 288 288 288
284 287 282 287 285 287 283 285 281 284 282 283 284 282 286 284 286 284 283 281 281 278 279 278 278 284 291 291 287 287 288 289 287 286 284 283 283 283 283 283 283 283 283 283 284 284 284 284 284 285 285 285 285 286 286 287 287 287 288 288 288 288 288 288 288 288 287 287 286 286 287 287 288 288 288 288 289 289 289 288 288 288 288 288 287 288
283 284 283 286 285 285 286 287 286 286 288 287 287 285 288 285 283 281 279 285 282 281 277 279 277 285 292 296 290 288 287 284 285 285 282 282 282 282 282 282 282 282 283 283 283 283 283 283 284 284 285 285 285 285 285 286 286 286 286 287 287 288 288 288 288 287 287 287 286 286 286 286 286 287 287 287 287 288 288 288 288 288 287 287 288 287
287 285 285 282 285 287 289 290 287 289 289 288 289 288 290 289 287 284 278 281 281 282 285 283 280 281 294 296 294 285 283 282 281 281 281 281 281 281 281 281 282 282 282 282 283 283 283 283 283 283 284 284 284 284 285 285 285 286 286 286 287 287 287 288 287 287 287 287 286 286 286 285 286 286 286 286 286 287 287 288 288 288 287 287 288 288
290 282 281 284 287 288 291 288 285 285 287 286 287 287 286 286 288 286 285 285 282 283 281 281 279 283 291 292 285 283 281 281 281 280 279 280 280 280 280 281 281 282 282 282 283 283 283 283 283 283 283 283 283 284 284 284 285 285 285 286 286 286 287 287 287 287 287 287 286 286 286 286 286 285 285 285 286 286 287 287 288 287 287 288 288 287
282 283 284 280 281 282 283 284 284 284 285 283 284 286 287 287 286 285 284 284 280 282 283 281 275 283 289 289 285 283 281 279 280 280 280 279 280 280 280 281 281 281 282 282 282 282 283 283 282 282 283 283 283 283 283 284 284 284 285 285 285 285 286 287 287 286 286 286 286 286 286 286 286 286 286 286 286 286 287 287 288 288 287 287 287 287
285 283 280 278 276 274 274 275 276 276 280 282 282 284 286 286 286 285 281 281 278 283 284 280 280 287 291 288 286 284 282 279 279 279 280 280 279 279 280 280 281 281 281 281 282 282 282 282 283 282 282 282 282 283 283 283 284 284 284 284 285 285 285 286 286 285 285 285 285 285 285 286 286 286 286 286 286 286 286 287 287 287 287 287 286 287
286 284 284 284 282 280 282 283 284 284 283 282 284 285 285 285 285 285 285 281 279 283 281 283 284 284 286 288 285 283 281 281 279 278 278 279 280 280 280 280 281 281 281 281 281 282 282 282 282 282 282 282 282 282 283 283 283 283 283 284 284 285 285 285 285 285 285 285 284 284 285 285 285 285 285 285 286 286 286 286 286 287 287 287 287 287
282 282 285 285 284 284 286 283 284 283 281 283 283 283 285 284 285 284 281 279 286 281 276 285 285 282 284 287 284 280 280 280 280 279 278 279 279 279 280 280 282 280 281 281 281 281 281 282 282 282 282 282 282 282 282 283 283 283 283 283 284 284 284 285 284 284 284 284 284 284 284 285 285 285 285 285 285 285 286 286 286 286 287 287 287 286
282 281 284 285 283 283 282 282 282 282 282 282 283 282 282 284 283 281 281 283 283 279 276 282 283 282 283 283 278 278 279 278 280 280 279 280 279 280 280 280 280 280 280 280 280 280 281 281 282 282 282 282 282 282 282 283 283 283 283 283 284 284 284 284 283 283 283 283 283 284 284 284 285 285 285 285 285 285 285 285 286 286 286 286 286 286
282 279 283 281 279 280 281 281 282 281 280 280 280 281 281 281 280 281 281 282 282 280 282 282 283 283 285 279 280 279 280 280 279 281 280 279 279 279 279 279 279 280 280 281 281 282 282 283 283 283 283 282 282 282 282 282 282 282 282 283 283 283 284 284 283 283 283 283 283 283 284 284 284 284 284 284 284 284 285 285 285 285 285 285 286 286
284 278 284 279 277 277 280 281 280 280 279 277 279 280 280 279 279 280 280 280 281 280 282 282 281 281 279 279 279 281 280 282 280 278 278 278 278 279 278 278 278 279 280 281 282 282 283 283 283 282 282 282 282 281 282 282 282 282 282 282 282 283 284 284 283 283 283 283 283 283 283 283 283 283 283 283 284 284 284 284 284 284 284 284 285 285
282 276 282 278 274 274 278 278 278 278 277 276 276 277 277 277 275 278 277 280 279 277 279 279 277 278 277 279 278 279 279 278 278 278 278 279 279 279 278 278 278 278 279 280 282 282 282 282 282 282 282 281 281 280 281 282 282 282 282 283 283 284 284 284 284 283 283 283 283 283 283 283 283 282 282 282 282 283 283 283 283 284 284 284 284 284
281 278 275 275 272 272 277 278 275 275 274 271 272 276 277 277 278 279 280 280 280 281 277 275 276 275 274 279 276 277 278 277 277 278 278 277 278 279 278 278 278 279 280 281 281 282 282 282 281 281 281 280 281 281 281 282 282 282 283 283 283 284 283 283 283 283 283 283 283 283 283 282 282 281 281 281 282 282 282 282 283 283 283 283 284 284
278 277 275 277 271 271 274 269 270 267 264 266 276 279 280 277 278 276 277 279 278 280 277 278 276 276 276 276 276 276 277 277 277 279 280 280 279 280 280 280 280 280 281 282 282 282 282 281 281 280 280 281 281 281 281 282 282 282 283 282 283 283 283 283 282 283 283 283 283 283 283 282 282 281 281 281 281 281 281 281 281 282 283 283 283 283
274 274 271 270 267 267 263 263 266 261 263 271 275 276 276 277 278 278 277 276 276 276 277 276 277 276 277 279 278 278 279 279 280 280 280 281 281 281 281 280 279 279 279 280 280 281 281 281 280 280 280 280 281 281 281 281 281 281 281 282 282 282 282 282 281 281 282 282 282 282 282 282 282 281 281 281 281 280 280 280 281 282 282 283 282 282
271 271 265 265 263 262 263 265 259 257 272 273 276 277 277 276 275 272 270 275 274 275 276 273 277 279 279 279 279 280 280 280 280 281 281 281 282 281 281 281 280 280 280 281 281 281 281 281 280 280 280 281 281 280 280 280 280 280 280 280 280 280 280 280 279 280 280 281 281 281 282 282 281 281 280 280 280 280 281 281 281 281 282 282 282 282
276 269 267 265 272 264 265 263 266 270 272 273 273 274 274 272 273 270 264 271 274 272 274 273 274 277 278 277 278 277 277 277 276 277 280 280 281 281 281 281 280 279 280 281 281 281 282 282 281 280 280 280 280 280 280 280 280 279 279 278 278 278 278 278 278 278 279 279 280 280 280 280 280 280 280 280 279 279 280 280 280 281 281 280 281 281
278 274 274 269 266 273 264 266 266 265 262 265 273 272 276 276 277 276 271 267 275 270 271 272 271 274 276 277 277 278 278 275 272 274 276 277 279 280 281 281 280 280 280 280 281 282 282 281 280 279 279 279 280 280 280 279 278 277 277 277 277 277 277 277 277 278 278 278 278 279 279 280 280 280 280 280 279 280 281 281 281 281 281 280 279 280
277 278 276 273 270 273 269 267 266 265 267 274 272 275 275 275 276 275 269 265 274 270 270 272 272 274 275 276 276 277 275 270 271 275 278 277 278 280 280 281 280 280 280 280 281 281 281 281 279 279 279 278 278 279 279 277 276 276 277 277 277 276 276 276 276 277 277 278 278 277 277 278 278 279 279 279 280 280 279 279 280 280 279 279 279 279
273 275 275 271 270 270 269 267 265 268 263 268 267 270 273 272 275 270 263 263 268 268 269 272 273 273 273 275 275 274 272 268 270 275 278 278 278 279 280 280 279 278 279 280 280 280 280 279 278 277 278 278 278 279 277 277 277 276 277 277 276 275 275 276 276 277 277 277 276 276 275 276 276 277 278 279 279 279 279 279 279 279 279 279 279 278
265 262 266 269 271 271 271 268 271 270 273 271 271 271 273 275 273 262 261 266 271 270 271 271 273 274 274 273 274 270 274 277 277 279 279 279 277 276 277 277 278 279 279 280 280 281 278 277 277 277 277 278 278 277 277 276 275 276 276 276 275 275 275 276 276 276 275 275 274 273 273 274 275 275 276 277 277 277 278 279 279 279 278 278 278 277
261 260 260 262 264 267 267 265 266 267 268 272 271 274 274 271 260 263 270 274 272 273 271 273 273 275 275 275 275 276 277 277 278 278 278 279 279 279 280 279 278 278 279 278 277 276 275 275 275 275 275 276 276 276 275 274 274 275 275 274 274 274 275 275 275 274 273 272 272 272 272 272 273 274 274 274 275 275 276 277 278 278 278 278 277 276
263 258 257 260 260 258 260 261 262 260 269 271 273 272 273 265 266 270 272 274 276 275 275 275 274 274 275 274 276 276 276 276 276 277 277 278 278 279 279 278 277 277 276 275 275 275 274 273 274 275 275 276 275 275 275 272 272 273 273 273 273 274 273 274 272 271 271 270 270 270 271 271 271 272 272 272 273 273 273 274 275 276 277 277 276 276
268 263 258 261 266 263 261 259 260 267 272 274 270 267 268 272 274 275 276 275 277 276 275 275 274 275 274 274 274 274 275 275 276 276 277 277 277 277 276 276 275 274 274 274 274 274 273 273 273 273 274 274 274 274 273 271 271 272 271 272 274 273 272 270 270 269 269 269 269 269 269 269 270 270 270 270 271 271 271 271 273 275 276 276 276 276
271 268 269 266 269 266 262 266 271 271 273 274 273 274 275 277 277 276 275 275 274 275 275 273 275 275 274 273 273 273 274 275 275 276 274 274 273 273 273 273 273 273 273 273 273 273 272 272 271 272 272 272 272 272 272 271 270 270 270 271 272 270 269 268 268 267 267 267 267 267 267 267 267 267 268 268 269 269 270 270 272 273 274 275 275 275
273 272 272 271 269 273 274 275 277 274 274 276 277 277 277 277 278 276 275 274 275 275 274 274 273 273 273 273 271 272 273 273 272 271 271 271 271 272 272 272 272 272 272 272 271 271 271 270 269 269 269 270 270 270 270 270 269 268 269 271 270 269 267 266 265 265 265 265 265 265 266 265 265 266 266 267 268 268 269 269 270 271 273 274 275 275
273 274 270 268 272 269 264 274 274 274 276 276 276 277 277 276 276 277 275 275 274 273 272 271 271 271 271 270 270 269 269 270 269 270 270 270 270 270 270 270 270 270 270 269 270 270 269 268 267 267 267 267 268 269 269 268 269 269 269 268 268 267 265 264 264 264 264 264 264 264 264 264 264 264 265 265 266 267 268 269 270 271 272 273 274 274
268 274 270 272 271 269 269 274 275 275 275 276 276 276 276 277 277 274 272 271 271 270 270 270 269 268 269 268 270 268 268 269 268 268 268 269 269 269 269 269 269 269 269 269 268 267 266 266 266 265 265 266 267 267 267 267 267 267 267 266 266 264 263 262 263 262 262 262 262 262 262 262 264 264 263 264 265 266 267 268 269 270 271 272 273 273
272 272 260 266 269 272 274 275 275 275 275 276 277 277 275 272 271 270 269 269 269 267 268 268 269 268 268 268 269 268 266 267 267 267 267 267 267 267 267 267 267 267 266 266 266 265 265 264 264 264 264 264 265 265 265 264 264 265 264 264 263 261 261 261 261 261 260 261 261 261 262 262 262 262 262 263 264 265 266 267 268 269 270 272 274 274
272 270 273 269 267 267 268 272 274 267 268 273 274 271 268 268 269 268 268 267 267 266 267 266 266 267 267 268 267 267 265 265 266 266 265 265 265 265 265 265 264 264 264 264 264 263 263 262 262 261 261 261 262 261 261 261 261 262 262 261 261 260 259 259 259 259 259 259 260 260 260 260 261 261 262 263 263 264 265 269 272 271 270 270 274 277
272 273 272 269 268 268 273 275 274 274 274 275 272 267 267 267 267 266 266 266 266 267 266 265 264 264 264 265 266 265 264 265 264 264 263 263 263 264 264 263 262 262 262 261 260 259 259 259 258 258 258 258 259 258 258 258 258 259 259 259 259 259 258 258 258 258 258 258 258 259 259 260 260 260 261 261 261 262 262 262 264 270 272 273 273 274
Wind_Speed
2 7 8 9 12 14 11 13 18 15 2 1 1 2 9 9 9 6 11 8 1 5 12 17 20 19 12 11 13 15 12 11 16 19 21 19 14 13 15 17 17 16 14 7 5 4 4 5 6 6 6 7 7 9 9 10 12 14 13 12 15 11 10 10 10 10 10 11 9 7 10 11 9 10 9 9 9 9 9 10 10 10 9 9 10 10
3 7 8 13 15 13 13 6 3 6 5 5 6 5 11 3 15 10 8 1 0 2 3 3 16 22 17 12 14 15 15 18 19 21 21 21 16 15 18 19 18 9 5 4 6 8 6 6 5 6 6 5 7 10 10 12 14 14 13 15 13 8 10 11 12 11 11 10 11 12 12 10 8 9 11 12 11 11 9 10 10 10 9 10 11 10
5 10 13 16 8 2 2 0 1 5 6 7 8 6 7 9 11 10 11 7 4 2 12 6 15 19 15 15 17 18 22 19 13 11 18 18 19 18 17 19 11 8 8 6 6 4 5 6 6 5 5 7 9 7 9 11 9 10 11 12 11 10 12 12 14 11 11 10 12 11 8 10 7 7 6 4 5 5 7 7 8 8 9 10 9 10
6 4 15 13 3 4 1 3 2 0 1 6 5 3 12 2 3 9 1 1 1 0 11 11 20 21 13 18 22 21 15 11 10 13 17 18 17 20 23 8 9 9 10 13 10 9 8 7 7 5 6 8 6 7 6 7 10 8 10 11 12 12 12 11 12 14 12 11 9 8 4 6 7 6 6 7 6 7 7 9 8 8 8 10 10 9
12 2 3 5 5 6 9 2 1 2 12 4 9 6 8 9 11 8 6 7 6 4 2 9 14 15 8 6 5 5 3 6 16 12 12 17 19 20 9 12 5 8 8 10 9 10 9 9 7 7 8 6 6 7 8 7 8 8 11 11 12 11 12 11 12 12 9 7 7 6 5 5 5 3 7 7 8 8 8 7 9 10 8 9 8 10
9 3 3 4 4 6 5 4 5 7 13 8 4 10 16 13 11 9 9 8 6 8 4 4 11 6 3 2 5 7 4 4 5 6 15 20 19 6 8 7 10 6 5 3 6 8 8 8 10 8 8 7 7 8 8 6 7 7 7 7 8 8 7 9 10 11 8 8 7 8 8 8 8 8 8 13 14 9 12 12 5 7 10 9 10 9
5 3 5 7 4 4 4 5 7 8 12 4 8 12 13 11 8 7 10 4 5 2 2 4 2 16 4 1 3 6 4 9 8 10 18 14 5 5 8 7 8 7 5 4 5 6 6 8 9 9 8 7 7 7 5 5 6 7 6 6 7 8 7 7 8 10 9 8 7 10 11 9 10 10 9 4 3 8 6 6 11 9 9 11 11 10
2 2 2 3 5 5 4 4 7 12 5 8 2 4 6 6 7 6 3 6 8 2 4 2 4 6 19 2 4 2 2 11 13 15 12 7 9 9 8 6 6 6 1 2 3 5 4 5 5 9 10 9 8 7 6 5 5 6 6 6 7 6 6 6 6 9 10 9 10 11 12 11 10 10 7 6 6 4 6 7 8 8 8 9 10 10
6 2 3 3 2 4 7 8 3 12 8 5 1 6 3 6 6 3 4 6 3 5 8 1 1 3 9 3 3 3 3 10 14 14 6 6 8 8 8 9 6 3 2 2 2 5 6 6 7 7 9 10 10 8 7 6 5 5 4 5 5 7 7 7 10 10 10 10 9 10 9 10 9 7 5 4 5 6 6 8 6 7 7 7 9 9
2 1 7 8 7 7 6 3 11 11 5 4 4 6 6 6 5 2 4 2 3 1 10 6 5 3 17 6 6 4 2 6 10 6 5 7 8 4 6 10 4 1 1 3 3 5 6 4 5 5 5 8 8 7 7 6 5 3 2 4 5 7 7 7 10 10 13 12 10 10 12 14 11 8 6 6 8 9 8 9 9 8 7 8 8 8
1 3 5 4 7 6 5 1 3 7 3 4 4 2 3 6 4 4 5 2 3 6 8 12 11 6 11 4 8 8 7 4 2 5 3 3 9 7 2 7 5 3 7 5 6 4 5 6 6 9 12 10 9 8 8 8 7 5 2 3 5 6 5 7 9 11 13 13 12 12 14 14 13 10 7 7 8 8 8 9 9 8 8 8 9 8
0 1 1 4 3 4 4 4 4 2 2 2 0 1 4 3 5 2 3 3 1 9 3 12 14 11 11 2 6 6 3 5 3 1 4 4 6 7 5 7 7 6 7 7 9 11 10 11 12 13 15 13 12 10 10 8 8 7 6 3 4 4 5 5 7 9 10 11 13 12 12 13 12 11 9 12 11 9 10 9 8 6 6 7 7 7
2 9 4 1 3 8 3 2 2 3 2 3 3 1 2 5 6 3 2 1 5 10 2 2 2 3 18 3 3 8 8 10 8 7 3 7 10 9 3 10 4 2 3 7 8 10 12 11 12 13 13 13 12 11 11 10 8 7 6 6 5 6 4 5 6 9 9 10 11 10 11 11 10 11 11 11 10 7 8 6 6 7 7 5 7 8
8 2 1 4 1 4 7 6 1 1 3 6 6 4 3 3 3 5 3 2 6 6 3 2 1 10 3 5 8 14 18 7 5 11 9 6 8 7 6 8 3 4 3 7 8 11 12 12 12 12 12 11 11 13 13 12 11 8 6 6 5 7 4 5 5 6 7 9 9 8 9 9 8 10 9 8 8 7 6 5 7 7 7 8 10 9
6 8 3 4 2 4 8 10 11 4 9 12 3 11 9 8 4 5 4 9 7 5 2 3 2 8 2 5 3 10 4 6 4 5 4 4 5 4 6 3 5 8 11 12 13 13 13 14 14 13 10 9 10 13 13 11 11 9 9 7 7 8 6 5 5 4 6 6 7 7 7 8 6 7 7 6 5 6 7 5 6 6 6 7 7 8
6 7 5 3 2 6 9 4 4 4 2 3 3 4 1 8 5 11 6 3 7 2 2 2 7 4 5 3 5 4 4 8 7 9 5 5 3 11 9 12 11 11 12 11 11 12 13 11 9 8 11 14 15 16 14 14 12 11 11 9 8 6 7 5 4 4 5 6 5 6 7 7 6 6 5 5 6 7 7 8 8 7 8 7 6 6
1 6 1 2 4 4 1 1 2 3 6 1 4 6 8 1 4 5 4 1 3 1 13 3 6 12 4 9 10 4 2 2 7 8 8 7 10 10 13 11 12 12 12 11 11 11 11 10 11 11 13 13 14 14 15 15 12 11 9 10 11 9 7 7 5 4 4 5 5 6 6 5 6 6 7 7 7 7 6 7 8 8 8 8 7 7
4 10 4 4 5 6 3 1 1 1 3 7 2 6 1 2 2 3 5 2 2 9 9 2 11 12 6 11 3 4 7 6 9 10 8 10 10 12 10 12 12 12 10 10 11 11 11 12 14 13 12 11 11 11 12 15 14 12 11 11 11 11 10 8 6 6 5 5 5 5 6 6 6 7 7 7 7 5 6 6 7 7 8 9 9 9
6 8 7 5 4 2 1 2 3 0 1 7 6 0 1 4 4 1 3 6 6 9 5 4 12 11 9 14 3 12 6 5 8 9 14 14 13 13 12 13 12 10 10 11 12 12 12 12 12 11 11 11 11 11 11 11 12 14 15 15 13 13 10 9 7 6 5 4 4 4 5 6 7 7 7 7 7 7 8 9 8 9 10 7 9 10
1 7 4 0 5 1 0 3 5 3 1 1 1 1 0 1 2 1 3 1 1 7 4 3 5 8 4 4 0 1 4 3 5 10 11 12 13 11 11 10 10 10 10 9 9 9 9 9 9 9 10 11 12 12 11 11 11 14 11 13 14 14 14 14 14 10 9 7 5 6 5 6 7 7 8 8 8 8 9 9 9 10 10 11 9 10
4 3 13 1 2 2 2 4 7 9 7 2 2 3 0 1 1 2 2 2 4 4 5 6 7 6 10 1 6 5 11 13 7 9 11 11 10 11 11 10 8 8 8 8 6 6 6 6 6 7 7 6 6 8 10 11 12 11 12 14 15 16 17 18 15 13 10 8 8 7 8 8 7 9 8 8 8 9 9 8 8 9 10 8 10 10
1 3 11 4 3 7 6 2 7 5 5 5 7 6 7 4 6 9 10 4 4 6 6 7 13 6 7 1 6 8 12 11 13 12 10 10 11 10 9 10 9 9 9 8 7 7 8 6 5 4 5 6 9 10 12 10 10 15 16 15 16 16 16 15 15 13 13 11 9 9 9 9 8 8 7 8 8 9 9 8 8 9 7 10 10 10
3 1 1 4 8 10 7 4 0 2 3 2 4 7 8 8 7 8 12 5 2 6 6 8 8 10 6 11 10 13 10 11 10 11 10 9 8 8 8 7 7 8 9 10 10 9 9 11 12 13 16 18 17 17 17 17 17 17 17 16 14 15 15 13 12 11 10 10 10 10 9 8 8 7 8 8 8 9 9 9 9 8 10 11 10 10
6 2 0 7 5 7 12 1 3 3 2 2 3 4 4 10 11 12 11 5 7 3 6 6 8 2 1 5 14 11 10 9 9 11 9 8 8 8 9 9 9 9 9 9 9 10 11 10 11 14 16 16 16 16 16 14 13 12 12 12 11 13 13 12 12 10 10 9 10 9 9 9 9 9 8 8 8 9 10 10 9 9 10 11 9 10
2 3 5 2 2 3 5 2 2 2 2 1 2 3 3 3 4 5 2 0 5 7 11 10 13 2 3 4 9 12 9 11 9 9 8 9 8 8 8 7 7 8 10 11 12 11 11 13 15 13 11 11 11 11 11 12 12 12 12 11 11 11 10 10 10 10 10 10 11 11 11 11 10 9 10 9 8 10 10 10 10 9 10 10 10 10
1 3 2 6 7 9 9 10 6 1 1 1 2 3 4 3 10 8 9 4 11 5 11 9 11 6 5 3 10 7 10 9 7 5 5 5 5 7 8 10 10 10 10 10 11 13 12 9 8 10 10 9 9 9 10 10 10 10 10 12 10 11 10 10 9 10 10 11 12 12 13 12 12 12 12 11 10 10 9 9 9 10 9 9 11 10
1 2 2 5 10 11 10 5 2 1 1 3 4 7 7 3 4 5 7 9 11 9 12 10 12 14 14 10 8 10 8 5 5 4 5 4 3 2 3 5 6 7 8 8 7 7 8 10 11 9 9 9 8 8 8 8 9 9 9 9 9 10 10 10 10 11 10 10 11 12 13 13 13 12 11 11 11 10 9 9 9 9 10 9 11 11
0 3 6 8 8 8 6 4 4 2 4 3 2 5 6 9 7 9 10 11 8 13 14 2 5 7 6 10 6 5 7 5 5 4 2 2 2 2 2 2 3 4 7 8 9 10 10 9 9 9 8 8 8 7 7 6 6 7 8 10 10 9 9 8 10 10 10 10 10 10 11 11 11 11 11 10 10 10 10 9 9 9 8 8 9 10
1 5 2 8 7 4 6 6 5 4 2 3 5 6 10 9 11 13 14 12 10 11 13 13 18 20 16 8 2 1 1 3 3 2 1 2 2 2 2 1 2 2 2 2 4 5 5 8 8 10 10 9 8 8 7 6 6 6 5 5 7 7 9 7 8 8 8 8 9 9 9 9 9 9 10 10 10 11 11 11 10 9 8 8 8 8
0 4 2 3 3 5 8 9 7 11 10 11 9 10 10 13 17 17 17 15 16 18 18 18 18 21 12 1 1 1 2 2 3 2 1 2 3 2 2 1 1 3 4 4 5 5 4 6 6 7 8 10 10 11 10 8 7 7 7 8 8 8 8 6 8 8 9 8 8 8 8 8 8 9 9 10 11 11 11 11 10 9 8 8 9 8
1 6 7 1 6 7 8 10 10 9 8 13 10 12 14 18 18 17 17 18 19 19 17 19 19 18 3 1 1 1 2 4 4 6 5 4 4 4 3 4 2 2 2 4 5 5 5 5 6 6 6 7 7 8 8 8 7 7 7 7 7 8 8 7 8 8 8 9 8 8 8 8 9 9 11 10 10 9 10 11 10 10 9 8 8 8
3 4 4 4 8 10 9 12 13 10 8 9 11 15 20 20 17 14 16 11 10 12 11 9 9 7 2 2 2 1 4 2 4 5 4 6 5 5 6 6 5 4 4 4 5 5 5 6 6 7 7 7 7 6 6 6 6 6 7 7 8 7 7 6 7 8 8 8 8 8 9 9 9 10 10 10 11 11 10 9 10 10 10 9 9 8
1 1 4 7 11 11 12 8 4 4 9 14 14 21 20 18 17 16 13 10 10 4 8 11 9 3 3 2 2 5 1 6 4 7 6 6 6 5 7 7 6 6 6 5 6 6 6 7 7 7 7 6 7 6 6 6 5 6 5 7 8 7 7 7 7 7 8 8 7 8 8 8 8 8 9 9 9 9 9 10 10 11 11 11 9 8
4 7 8 4 9 10 10 2 1 4 12 16 4 2 3 10 6 7 7 4 6 4 2 1 4 4 4 3 4 5 5 4 4 7 5 6 9 7 8 8 8 7 7 7 7 7 7 6 6 6 7 7 7 7 6 5 5 6 5 5 6 7 8 8 8 7 8 7 6 8 8 8 8 8 9 8 8 8 9 9 10 10 9 8 8 8
8 8 8 3 4 7 1 4 7 11 16 5 2 2 1 1 3 5 3 3 3 3 6 5 5 4 7 6 7 7 8 7 6 8 9 9 7 8 10 9 9 8 9 9 8 8 7 8 8 7 7 7 7 6 5 5 5 5 5 5 7 7 7 7 8 7 8 6 7 7 8 8 8 9 9 9 9 8 8 8 9 10 9 9 9 9
7 8 1 2 3 3 2 3 5 7 2 6 6 2 1 5 1 5 4 5 4 4 6 4 6 6 4 6 7 8 8 7 4 7 10 10 9 9 10 10 9 8 8 9 9 10 9 8 8 7 8 6 5 7 5 6 5 5 7 6 7 8 6 6 7 7 8 6 5 6 7 8 9 9 9 9 9 9 10 9 8 9 9 8 8 7
9 2 3 5 4 7 4 7 12 8 17 13 10 1 3 2 2 2 4 5 7 6 7 4 5 5 6 6 8 7 3 1 3 8 9 11 13 11 12 13 10 9 8 9 9 11 10 9 8 8 7 8 8 8 8 6 6 6 7 6 6 6 6 6 7 7 8 7 8 7 7 8 9 9 9 8 9 9 10 10 11 10 7 7 7 8
8 10 6 6 5 6 3 6 6 4 8 5 2 3 4 3 1 1 6 6 3 6 3 4 4 8 8 8 7 8 0 2 7 8 7 7 9 11 11 11 10 8 8 9 8 8 9 9 8 7 8 10 11 10 7 6 6 6 7 8 8 6 8 7 9 9 7 8 7 9 9 9 10 11 11 10 9 10 10 9 8 9 7 8 10 9
4 7 6 8 4 4 6 8 9 9 6 5 7 4 2 1 1 3 4 7 2 6 5 7 7 7 6 7 8 2 1 3 8 9 10 7 7 9 10 12 11 11 10 9 9 10 10 10 8 8 8 8 11 11 7 7 6 7 8 9 9 7 9 9 9 9 9 9 8 8 9 9 11 12 12 12 11 10 11 11 9 9 7 7 8 9
4 5 6 8 9 8 7 7 10 3 3 1 2 2 4 2 2 3 9 6 3 8 5 7 8 7 7 6 5 2 5 7 8 9 8 10 9 9 11 13 12 11 10 9 7 9 9 7 5 8 10 11 12 9 8 7 7 8 11 11 9 9 11 9 9 9 8 8 8 7 8 9 11 12 13 13 13 13 12 11 10 9 9 8 7 8
1 3 1 9 10 10 16 10 7 6 2 3 5 5 2 2 1 3 10 5 5 6 5 4 6 8 6 6 4 4 8 9 10 10 10 10 8 9 10 9 11 10 9 8 9 6 4 5 5 8 11 11 11 9 8 7 7 10 11 11 10 13 12 9 9 9 7 7 8 8 9 9 10 12 13 12 13 14 13 11 11 11 10 10 9 8
1 3 6 2 5 9 7 8 9 5 6 8 4 6 5 2 2 9 3 4 2 5 3 5 6 6 5 7 7 8 9 8 8 9 10 12 13 13 13 11 9 8 7 6 6 6 6 6 8 9 11 11 11 9 7 6 9 11 12 11 14 14 9 9 9 7 6 8 9 9 10 11 11 11 11 13 13 14 15 14 13 12 12 10 9 10
5 4 5 5 3 1 0 3 5 8 1 5 4 2 2 4 7 2 2 6 5 10 9 8 5 7 5 7 8 9 8 9 10 11 11 11 12 13 11 9 8 7 8 9 10 8 6 8 11 12 13 13 11 9 7 6 10 12 13 14 17 11 7 8 6 7 8 10 11 12 12 12 12 12 11 12 13 14 16 16 15 15 13 12 12 11
3 1 3 5 6 6 3 4 4 5 1 0 2 2 2 4 2 6 9 12 10 7 6 6 5 6 5 6 7 7 8 9 11 11 11 10 9 8 7 7 7 8 9 8 7 9 7 10 11 13 13 13 12 10 8 7 11 13 15 17 13 8 8 6 7 8 10 12 12 13 13 12 12 12 12 13 13 14 16 17 16 14 12 12 11 11
5 9 7 8 1 5 5 7 6 3 1 2 5 5 6 8 8 8 6 7 8 9 4 3 7 7 4 3 4 6 9 9 9 7 7 8 10 10 10 10 10 10 11 12 13 11 7 10 12 13 15 15 14 12 10 8 11 15 18 16 9 8 8 8 9 10 12 13 14 14 13 13 13 14 13 13 12 14 14 16 15 14 13 11 11 11
3 5 1 2 5 4 7 12 13 5 5 12 8 8 10 11 9 6 6 7 6 6 4 5 4 4 5 3 2 4 4 5 8 9 9 10 10 12 11 11 11 10 11 11 11 11 9 10 11 13 15 18 16 15 11 11 10 15 16 12 9 9 8 9 11 13 14 15 14 15 15 16 17 16 14 14 12 13 13 14 15 14 14 13 12 12
7 3 2 5 7 6 8 8 9 12 11 9 10 11 8 5 7 7 6 4 3 3 4 5 3 3 3 4 2 4 7 6 7 8 9 10 12 12 12 12 12 12 12 13 13 11 12 12 13 15 16 17 17 14 12 12 12 13 12 11 11 9 9 10 13 15 15 16 15 15 15 16 14 15 15 15 13 12 13 13 13 14 14 13 13 12
7 4 5 10 11 9 15 15 10 7 8 8 8 8 11 12 9 3 3 3 3 3 3 3 1 2 3 3 3 5 8 7 6 8 9 11 11 11 12 12 13 14 14 13 12 11 13 14 15 16 15 17 16 15 13 14 14 13 12 11 10 9 10 13 14 15 16 18 16 15 15 15 17 18 15 15 13 13 13 13 13 14 14 14 13 12
4 4 4 4 7 12 11 12 15 11 9 13 13 11 5 2 3 3 4 4 4 5 4 2 3 2 2 4 3 4 8 10 5 7 10 12 12 11 11 12 13 14 15 15 15 13 13 13 16 15 18 16 16 13 15 14 13 12 13 10 10 11 14 16 18 18 19 18 16 17 15 14 14 14 14 15 15 13 14 13 14 14 15 16 13 13
3 11 9 2 8 11 11 14 6 4 9 7 4 1 3 2 2 2 2 4 5 5 5 7 5 2 2 3 3 5 6 9 9 7 10 11 12 12 13 14 13 14 14 12 11 13 15 14 14 17 19 21 17 18 16 16 14 14 13 13 11 14 15 18 18 19 19 17 16 16 15 13 12 12 11 12 11 13 14 18 25 20 17 17 22 29
10 13 6 8 9 12 13 11 5 6 7 9 1 5 3 3 2 3 3 2 2 2 4 5 9 9 3 1 3 6 7 8 10 10 12 11 12 11 12 12 13 14 15 14 15 16 16 17 19 21 20 19 17 17 18 19 17 16 16 14 15 16 17 16 16 17 18 16 15 15 14 12 10 11 9 11 10 12 14 17 17 26 32 32 32 32
Wind_Direction
125 159 173 197 217 217 219 205 213 231 339 53 153 227 256 265 276 253 264 263 179 306 251 264 270 273 269 258 271 273 278 270 271 275 275 274 277 276 275 269 268 266 270 294 278 299 286 280 264 249 233 230 228 226 210 204 207 205 201 190 203 194 184 178 175 181 180 181 177 192 201 205 184 194 189 196 199 198 197 187 191 186 186 178 178 181
87 196 216 218 219 214 224 238 273 293 284 280 274 261 270 214 275 254 281 246 345 200 275 225 279 275 275 274 269 274 270 264 255 262 270 277 279 275 271 272 271 291 291 333 348 6 343 311 287 274 250 221 222 226 211 210 210 206 200 201 203 181 188 192 189 186 188 189 190 184 194 188 183 183 191 199 194 200 196 193 190 190 182 180 182 178
199 210 221 229 228 72 44 88 154 203 239 249 241 267 299 260 262 278 256 288 276 170 276 279 273 275 275 264 254 250 252 251 256 254 265 272 276 273 274 269 300 308 306 325 45 4 331 300 293 276 260 251 235 243 216 223 214 207 205 209 196 193 193 198 196 189 197 191 195 192 188 187 186 199 206 216 205 195 200 197 196 191 190 183 180 176
260 266 242 242 213 244 303 57 108 76 255 233 247 285 251 272 307 303 265 7 318 186 296 298 295 288 272 251 245 244 253 272 264 253 252 257 262 262 258 294 304 310 324 336 8 338 294 302 292 301 277 256 260 258 256 232 222 216 215 208 200 200 200 197 199 202 203 197 194 196 132 168 183 178 161 190 181 187 179 202 192 199 189 186 186 172
218 211 246 224 194 193 232 196 123 252 266 200 214 236 277 260 244 231 277 338 301 273 233 308 284 283 239 244 288 304 268 234 260 259 266 266 252 253 299 289 285 311 356 342 344 308 309 317 319 296 285 297 268 256 249 235 223 216 217 211 204 201 200 200 197 197 186 165 159 142 84 104 113 93 162 176 207 187 188 188 194 195 184 188 182 180
268 270 110 92 169 193 202 250 217 209 261 255 211 198 237 254 273 265 288 355 358 313 350 17 328 306 354 119 262 275 353 263 267 250 252 248 252 307 281 284 46 42 47 45 272 282 305 313 324 328 318 300 267 261 253 242 238 234 231 216 211 210 202 203 195 188 173 180 171 161 166 175 180 193 182 198 197 166 189 196 138 175 192 184 191 186
217 240 179 201 146 152 173 209 233 184 244 307 267 207 228 241 250 271 281 10 290 207 314 36 82 292 150 211 253 256 268 280 272 229 245 253 315 331 287 12 27 34 11 303 294 304 330 330 337 321 314 303 284 274 283 266 246 237 232 208 205 205 200 195 188 180 178 183 187 194 201 202 200 206 217 212 167 192 189 172 186 183 176 190 187 186
159 300 72 78 115 133 141 228 235 173 212 261 242 179 201 219 228 242 225 198 251 269 289 199 174 251 300 176 241 307 235 253 263 257 263 333 335 307 312 46 49 44 21 254 294 318 310 308 318 313 314 311 316 330 330 295 281 245 231 205 203 195 183 169 174 181 187 190 192 198 207 211 216 219 224 185 203 179 181 189 187 181 186 184 189 182
153 166 151 126 128 131 192 216 154 161 166 219 240 146 162 206 216 172 189 213 230 16 304 309 79 295 258 251 337 143 189 254 254 256 294 325 304 299 307 68 76 99 234 246 320 354 333 321 315 305 315 326 340 354 336 305 281 261 237 215 197 195 177 173 171 178 192 199 196 201 205 216 222 223 220 155 164 177 175 190 180 187 182 182 192 188
303 185 204 161 140 207 218 215 166 164 197 250 129 83 76 76 65 123 127 133 310 34 270 181 193 225 279 291 125 0 292 268 253 275 298 273 255 257 294 86 79 274 302 284 321 337 333 307 292 287 292 340 351 339 333 328 318 293 207 191 201 210 186 174 178 183 188 191 191 203 210 216 219 207 193 167 177 177 169 189 188 184 179 185 184 191
236 327 166 122 199 211 161 71 159 190 159 121 108 79 11 42 47 26 64 89 40 263 257 174 202 165 278 288 179 137 210 209 291 303 289 346 305 295 313 79 102 15 5 3 5 343 334 324 331 2 15 351 349 353 357 353 353 344 314 207 210 222 194 184 185 185 194 196 195 202 207 213 218 208 193 186 195 173 176 196 187 185 185 178 190 184
183 40 182 252 68 76 101 80 29 67 133 144 74 129 21 327 17 28 344 41 206 273 207 191 184 185 221 299 292 236 257 226 214 261 330 340 304 317 47 59 63 5 350 356 11 352 355 7 6 10 9 360 348 356 4 1 349 350 333 332 273 261 219 205 195 194 201 201 209 211 203 209 213 204 199 207 207 193 197 199 194 182 174 191 186 183
248 204 237 294 227 150 163 112 340 36 44 74 69 11 293 281 28 322 41 320 196 232 277 297 185 342 244 236 226 271 254 246 218 221 230 287 291 289 56 78 48 331 322 10 3 2 357 4 4 6 360 355 356 358 356 356 353 342 341 327 307 277 263 234 213 208 206 209 218 218 215 214 207 210 210 213 214 193 202 191 191 179 196 171 188 198
281 306 355 238 23 215 138 168 179 227 163 132 153 157 114 295 260 262 264 250 302 299 273 195 7 255 304 295 223 255 263 275 198 222 236 260 283 307 328 69 314 334 354 24 19 20 8 356 355 360 3 354 354 2 4 357 356 349 333 335 301 290 299 267 243 232 222 223 224 223 226 227 217 217 212 216 216 200 203 195 201 193 194 194 201 194
329 320 275 150 248 182 176 199 193 153 157 195 146 156 184 181 171 268 194 251 249 231 317 273 125 235 87 252 236 238 298 321 321 340 304 247 233 262 49 9 30 36 22 18 20 22 20 16 7 357 343 345 9 16 9 5 359 351 347 341 330 312 314 294 277 283 257 253 242 236 234 231 230 229 220 215 209 201 195 195 203 201 202 208 206 211
229 245 264 209 285 150 180 237 91 101 91 207 156 70 68 232 148 241 233 229 279 322 319 219 214 214 208 279 289 222 300 335 324 294 292 294 349 29 45 37 23 24 29 25 24 27 29 22 10 0 4 11 14 14 17 15 6 2 354 343 335 322 315 318 305 293 291 279 283 270 252 250 243 244 244 235 200 199 187 195 194 196 198 208 205 209
15 268 262 339 53 204 200 297 187 135 248 151 100 201 220 93 167 265 301 253 81 8 257 180 301 268 302 261 260 291 88 341 343 338 354 351 13 48 46 41 31 25 26 24 29 28 23 21 18 15 16 17 15 15 14 14 14 12 0 355 351 350 347 343 334 295 277 281 286 277 282 277 265 253 243 240 233 215 195 191 200 203 202 197 194 198
210 264 228 121 251 244 187 137 146 36 138 106 192 247 355 184 107 160 233 358 213 235 263 239 253 277 329 297 22 72 45 354 9 8 7 34 39 47 37 42 38 34 25 21 23 23 21 20 17 15 16 16 13 14 15 14 11 15 22 22 16 8 1 343 333 323 300 283 270 273 275 266 251 250 249 247 241 216 206 201 199 203 204 205 204 196
174 264 255 210 204 216 43 133 316 318 218 176 191 290 128 239 241 246 93 233 228 237 258 233 268 262 237 254 294 318 9 14 14 12 32 27 30 29 30 36 35 29 28 23 18 17 16 16 15 13 11 10 17 17 20 18 17 19 18 12 15 14 5 353 347 349 332 313 279 257 256 257 256 245 242 236 227 214 212 212 206 207 215 207 201 201
143 254 293 276 150 184 66 110 219 209 285 45 67 28 194 88 230 112 205 247 343 261 245 237 220 267 213 253 61 197 137 133 49 33 44 42 37 36 29 26 25 25 27 23 20 18 16 14 15 15 16 17 17 17 14 18 21 24 20 19 13 9 11 14 17 2 342 324 305 287 276 262 251 249 242 237 231 226 220 213 208 210 210 212 201 205
252 145 263 141 291 24 243 169 201 171 191 161 170 242 121 118 39 105 301 189 229 268 237 284 261 258 263 138 123 109 32 21 23 76 64 42 30 28 27 20 17 23 27 29 25 22 21 22 22 25 27 30 29 29 25 23 20 18 19 21 18 16 11 11 6 4 353 335 315 301 285 273 263 257 250 249 240 242 241 233 222 220 219 203 211 201
162 213 232 217 250 211 245 217 183 179 163 169 172 195 198 218 274 264 255 130 187 201 232 233 250 237 272 134 119 58 54 54 30 60 69 52 38 28 22 19 14 14 21 22 23 21 21 23 31 38 36 37 33 28 25 20 21 23 23 18 15 13 15 8 2 359 349 345 337 322 304 293 280 266 263 253 248 244 244 238 232 230 222 219 220 204
149 58 18 248 234 252 242 249 265 240 276 268 210 250 208 224 215 238 259 214 187 231 248 250 277 238 246 293 2 61 60 56 52 51 50 47 44 34 25 22 14 20 13 10 11 14 14 16 14 14 17 18 19 17 18 18 19 16 15 15 12 11 6 3 356 352 350 349 346 338 325 310 293 282 271 262 258 254 249 246 241 228 226 228 225 216
109 168 234 256 250 287 281 275 47 52 127 322 260 226 169 217 211 226 243 274 264 219 214 233 234 36 339 53 81 77 64 54 55 49 47 35 32 22 23 16 16 14 12 9 13 12 14 13 14 20 18 16 14 13 12 12 14 14 14 13 9 8 1 358 357 351 353 356 358 354 345 335 320 304 287 272 266 261 258 252 249 236 236 236 231 225
20 273 150 280 273 304 288 333 35 358 48 219 228 247 221 305 337 280 30 101 266 214 251 251 256 182 250 94 105 103 85 78 56 45 47 45 14 15 16 13 10 6 9 13 12 9 9 14 16 15 14 14 12 10 10 9 8 8 6 7 8 3 356 356 353 352 353 355 358 3 7 2 351 336 313 297 284 272 265 259 254 247 240 238 238 232
162 262 122 262 279 277 279 267 276 8 289 267 299 333 323 285 274 293 273 230 252 173 210 238 265 237 252 66 19 46 100 92 88 92 71 65 40 14 7 3 5 9 9 5 5 8 9 4 5 10 9 9 9 9 5 4 2 2 1 359 359 358 355 352 352 350 352 355 359 0 2 1 0 355 345 326 310 292 279 268 259 252 248 239 241 236
258 297 274 245 247 253 265 305 88 128 224 236 303 328 305 325 306 271 282 260 249 271 260 257 267 279 277 296 348 343 2 55 93 51 57 57 33 28 14 2 358 357 356 356 353 350 352 5 4 358 3 2 1 3 1 358 356 354 354 352 354 352 350 347 350 349 352 354 358 358 358 357 355 352 349 342 331 319 304 288 271 258 253 242 240 239
343 261 230 248 253 267 311 288 316 27 304 288 298 296 320 300 288 282 260 271 339 320 274 235 280 306 300 303 319 350 348 1 38 72 25 16 345 356 305 331 349 350 351 349 353 356 354 345 346 352 352 352 353 351 350 352 347 347 347 347 346 346 348 345 346 345 346 348 353 357 353 351 345 348 345 341 337 330 322 309 296 278 264 254 248 241
172 251 240 272 286 358 322 306 308 306 280 269 272 276 280 283 279 271 269 278 292 271 282 305 298 290 286 270 176 71 56 310 325 341 207 237 244 238 254 285 334 310 308 333 321 328 333 336 332 334 338 338 340 345 348 345 347 341 337 338 337 337 337 335 337 338 339 340 346 347 343 338 340 340 341 342 344 343 338 330 316 302 287 269 258 248
29 253 258 47 309 306 292 291 298 298 302 293 282 272 269 269 265 264 270 267 262 262 265 269 269 270 290 182 133 169 320 267 276 257 275 252 257 255 243 264 257 300 294 310 312 314 316 314 317 315 322 330 335 339 340 343 340 337 336 336 337 335 328 336 335 337 336 336 333 333 332 333 333 337 337 344 347 344 341 337 330 320 310 293 273 264
177 286 5 315 321 293 291 289 287 284 291 284 283 275 264 261 262 261 265 261 261 262 267 263 263 268 98 163 142 261 240 262 295 295 265 255 266 276 279 302 288 273 249 242 249 267 280 293 298 302 301 304 313 315 321 325 323 325 323 322 327 324 320 329 326 330 327 324 322 323 326 331 336 336 342 344 342 344 345 342 336 329 318 306 293 279
347 262 333 324 299 289 288 286 293 308 305 280 281 277 267 260 262 254 251 256 256 265 264 274 270 253 96 156 268 219 248 273 261 265 258 238 241 262 271 284 287 278 270 254 255 252 260 273 277 286 288 289 288 291 298 302 307 315 319 321 324 317 311 311 313 316 315 310 312 320 326 330 333 338 338 341 342 341 340 336 335 331 324 318 309 294
221 267 307 298 286 272 279 292 343 343 311 285 258 250 258 263 253 260 264 266 259 258 254 251 264 73 188 188 172 294 185 284 284 282 295 283 241 232 260 273 282 289 280 282 274 265 256 261 265 265 274 273 275 281 282 285 293 302 300 316 311 316 312 309 307 304 303 301 306 317 320 323 330 330 332 333 332 331 334 335 334 333 330 324 314 307
224 238 258 223 259 274 285 343 349 340 272 259 284 102 204 255 289 281 274 224 229 194 215 37 139 170 158 205 205 258 268 244 253 263 261 277 289 279 267 268 277 281 281 270 265 264 260 257 258 260 261 268 270 266 270 271 273 277 284 291 303 307 307 308 309 306 304 301 307 314 320 322 326 326 325 324 324 327 328 332 330 324 319 313 314 309
234 244 245 163 241 255 235 31 314 258 259 283 357 241 14 234 222 234 251 231 212 87 111 106 162 178 207 183 208 228 232 237 239 244 259 262 248 252 259 269 279 287 287 287 280 268 260 260 262 263 265 268 266 270 280 286 279 288 294 297 302 301 297 300 298 299 295 295 301 310 317 321 321 321 321 321 321 321 319 318 318 322 322 322 317 312
227 224 167 276 168 8 58 211 243 240 114 275 260 119 18 79 99 63 326 244 222 178 141 155 225 207 225 218 232 230 223 239 248 247 250 256 247 237 250 253 262 276 286 284 283 281 276 265 264 274 284 279 278 277 274 276 282 291 289 296 298 296 295 293 297 293 291 292 299 308 314 316 315 314 313 313 315 316 316 316 313 314 314 315 310 301
215 145 161 252 221 215 222 201 239 322 317 302 298 195 146 178 177 167 221 285 184 213 164 188 233 219 235 240 241 249 241 60 315 279 257 242 248 234 226 237 238 247 253 266 266 271 274 275 275 280 288 292 287 285 283 283 284 281 282 286 279 280 282 287 287 292 294 296 304 312 313 313 310 307 306 305 305 304 305 309 311 308 304 298 295 297
200 198 218 196 274 192 173 269 280 259 254 289 218 264 307 239 135 217 98 289 197 210 180 180 222 234 227 244 250 253 162 349 293 279 269 253 235 234 237 236 244 246 249 255 264 269 272 275 279 282 283 288 288 282 281 282 278 279 283 285 287 288 291 290 292 294 295 296 306 313 317 316 313 310 307 303 298 297 296 294 289 290 297 296 299 295
217 216 214 223 259 246 218 225 242 250 249 130 223 204 246 198 165 119 71 286 207 181 221 178 232 243 232 233 244 208 111 257 266 279 283 278 246 235 236 241 242 241 241 239 243 256 263 263 265 276 285 281 281 283 287 286 284 284 281 282 286 286 287 289 292 296 299 303 308 315 316 317 314 310 306 303 300 300 299 295 290 286 279 272 272 276
157 207 195 225 227 235 259 261 253 241 220 281 202 247 218 153 134 47 327 292 131 230 218 200 222 244 256 241 231 168 195 245 262 269 266 272 258 238 230 238 246 251 248 249 247 240 250 267 294 296 290 287 284 289 295 298 299 290 290 292 295 292 286 290 290 289 290 294 304 309 312 311 310 306 303 304 305 306 299 295 293 287 285 278 268 274
45 339 221 214 234 234 238 252 255 277 269 246 216 222 214 183 8 305 253 247 198 216 245 197 221 240 242 256 209 215 222 224 251 272 284 289 297 280 262 250 252 254 262 267 270 279 283 279 277 276 280 283 289 296 297 302 300 292 289 293 294 286 288 292 290 294 291 298 301 304 304 304 302 301 301 302 303 302 299 294 290 289 286 285 284 276
317 132 304 23 242 236 241 253 260 279 233 219 258 171 174 86 273 238 240 147 197 255 235 202 243 254 245 240 240 231 246 250 266 279 281 279 275 277 277 272 276 290 289 293 299 315 312 313 297 291 287 282 285 288 292 294 289 285 288 289 283 282 302 293 294 297 300 301 300 301 300 299 299 297 298 301 302 302 299 297 294 291 289 284 278 275
213 119 234 204 226 30 297 239 272 260 333 108 184 64 257 138 233 194 279 290 294 308 316 311 279 271 233 262 250 254 264 277 278 278 277 279 281 284 290 301 308 307 311 318 319 314 319 309 299 293 290 292 292 291 289 293 285 284 284 282 279 296 299 291 300 301 302 301 300 298 297 295 295 295 296 296 298 299 296 296 296 291 285 281 280 275
220 72 257 258 183 241 203 214 207 225 203 305 95 206 246 201 215 309 315 301 301 296 299 290 278 267 261 242 262 274 275 281 286 282 288 297 311 324 319 317 316 315 309 299 284 291 308 301 293 291 291 291 291 293 294 291 285 283 284 279 290 303 292 299 301 301 301 297 295 297 294 294 293 289 289 290 292 293 290 289 289 287 282 280 275 275
210 192 202 228 255 138 208 232 240 213 205 229 186 234 245 274 283 279 271 267 283 289 278 284 283 291 287 289 280 278 284 280 289 316 334 324 320 313 312 309 308 306 304 303 303 307 310 294 294 296 294 293 295 293 293 286 283 284 281 284 304 295 301 304 303 301 296 295 294 293 293 294 290 288 288 286 285 284 284 284 284 285 283 278 273 267
263 191 262 37 250 247 246 250 270 278 254 271 258 252 269 279 283 282 263 276 259 264 284 288 330 338 348 8 352 292 285 323 331 323 324 315 307 301 303 306 307 308 304 303 304 312 311 305 297 295 293 294 294 295 296 290 282 281 282 295 301 303 306 307 303 298 293 292 291 290 293 292 290 287 284 283 279 275 275 277 280 279 280 278 270 266
245 225 142 215 267 278 266 252 243 253 265 264 265 273 272 256 255 266 279 269 302 0 34 45 31 14 35 28 39 324 303 313 313 307 305 302 299 300 305 309 307 306 307 308 311 322 317 310 305 299 297 295 294 298 299 293 289 283 292 297 304 308 309 304 298 293 292 289 290 290 288 286 287 289 288 284 282 276 272 271 270 269 270 269 268 266
295 169 194 236 249 227 253 258 262 246 233 252 258 272 275 277 283 14 59 61 77 72 67 17 16 64 26 5 341 317 300 303 308 307 305 298 298 303 307 308 309 311 310 313 317 320 311 307 302 300 299 295 295 300 299 296 294 297 302 305 309 314 311 301 295 293 291 289 288 286 285 284 283 283 283 281 279 279 277 271 268 269 267 267 266 264
201 82 222 191 217 249 266 275 268 280 278 265 262 256 283 354 12 53 31 42 29 27 17 40 50 6 10 320 320 312 306 300 308 306 298 297 298 303 310 312 312 312 313 316 317 317 310 310 307 303 302 296 303 307 306 303 304 308 313 316 319 315 307 298 294 290 287 285 285 281 281 279 278 277 279 278 276 268 267 270 272 270 271 264 262 261
139 245 238 127 257 260 254 259 262 294 281 268 240 245 85 11 70 76 50 29 24 19 0 345 336 358 313 313 335 318 298 299 310 315 299 296 298 307 314 312 310 309 310 313 316 315 314 311 311 310 307 304 308 307 304 305 306 310 313 313 309 305 295 293 292 288 283 282 279 279 280 278 276 273 273 275 277 281 278 271 273 275 275 277 272 268
206 237 234 230 236 253 254 255 227 220 255 273 237 143 71 34 34 51 46 3 3 24 9 349 329 326 329 331 334 310 296 304 310 317 303 300 302 309 308 311 314 317 319 325 324 316 315 312 310 308 304 305 309 305 305 302 302 303 301 298 294 292 286 284 284 282 281 281 278 277 278 277 277 277 274 276 278 280 282 287 280 271 272 273 274 275